Rusk, TX

5:19 PM CST on January 16, 2017 (GMT -0600)
Cherokee County

Weather History for KJSO - November, 2013

Change the Weather History Date:

Wednesday, November 6, 2013

  Actual Average (KTYR) Record (KTYR)
Temperature  
Mean Temperature 56 °F -  
Max Temperature 68 °F 66 °F 85 °F (1989)
Min Temperature 44 °F 48 °F 26 °F (1959)
Degree Days  
Heating Degree Days 9    
Growing Degree Days 6 (Base 50)    
Moisture  
Dew Point 56 °F    
Average Humidity 91    
Maximum Humidity 97    
Minimum Humidity 81    
Precipitation  
Precipitation 0.57 in - - ()
Sea Level Pressure  
Sea Level Pressure 30.16 in    
Wind  
Wind Speed 8 mph (WNW)    
Max Wind Speed 14 mph    
Max Gust Speed 21 mph    
Visibility 8 miles    
Events Rain    
Averages and records for this station are not official NWS values.
T = Trace of Precipitation, MM = Missing Value Source: NWS Daily Summary

Daily Weather History Graph

Daily Weather History Graph

Search for Another Location

Airport or City:

Trip Planner

Search our weather history database for the weather conditions in past years. The results will help you decide how hot, cold, wet, or windy it might be!

Date:

Astronomy

Nov. 06, 2013 Rise Set
Actual Time 6:41 AM CST 5:26 PM CST
Civil Twilight 6:16 AM CST 5:52 PM CST
Nautical Twilight 5:47 AM CST 6:21 PM CST
Astronomical Twilight 5:18 AM CST 6:50 PM CST
Moon 9:52 AM CST (11/6) 8:36 PM CST (11/6)
Length of Visible Light 11h 36m
Length of Day
10h 45m
Waxing Crescent, 14% of the Moon is Illuminated
Nov 6
Waxing Crescent
Nov 9
First Quarter
Nov 17
Full
Nov 25
Last Quarter
Dec 2
New

Hourly Weather History & Observations

Time (CST) Temp. Windchill Dew Point Humidity Pressure Visibility Wind Dir Wind Speed Gust Speed Precip Events Conditions
12:35 AM 68.0 °F - 66.2 °F 94% 30.04 in 7.0 mi SSE 10.4 mph 16.1 mph N/A   Overcast
12:55 AM 68.0 °F - 66.2 °F 94% 30.04 in 7.0 mi SSE 11.5 mph 17.3 mph N/A   Overcast
1:15 AM 68.0 °F - 66.0 °F 93% 30.04 in 7.0 mi SSE 9.2 mph - N/A   Overcast
1:35 AM 68.0 °F - 66.2 °F 94% 30.04 in 7.0 mi SSE 10.4 mph 16.1 mph N/A   Overcast
1:55 AM 68.0 °F - 66.0 °F 93% 30.04 in 7.0 mi South 10.4 mph - N/A   Overcast
2:15 AM 68.0 °F - 65.8 °F 93% 30.03 in 7.0 mi SSE 9.2 mph - N/A   Overcast
2:35 AM 68.0 °F - 66.0 °F 93% 30.03 in 10.0 mi South 9.2 mph - N/A   Overcast
2:55 AM 68.0 °F - 65.8 °F 93% 30.03 in 10.0 mi South 9.2 mph - N/A   Overcast
3:15 AM 68.0 °F - 65.8 °F 93% 30.03 in 10.0 mi SSE 6.9 mph - N/A   Overcast
3:35 AM 68.0 °F - 66.2 °F 94% 30.03 in 7.0 mi SSE 5.8 mph - N/A   Overcast
3:55 AM 67.8 °F - 66.2 °F 95% 30.03 in 7.0 mi SSE 8.1 mph - N/A   Overcast
4:15 AM 67.6 °F - 66.2 °F 95% 30.03 in 7.0 mi SSE 8.1 mph - N/A   Overcast
4:35 AM 67.6 °F - 66.2 °F 95% 30.04 in 7.0 mi SSE 5.8 mph - N/A   Overcast
4:55 AM 67.6 °F - 66.2 °F 95% 30.04 in 7.0 mi South 8.1 mph - N/A Rain Light Rain
5:15 AM 67.5 °F - 66.2 °F 96% 30.04 in 5.0 mi SSE 6.9 mph - 0.01 in Rain Rain
5:35 AM 67.3 °F - 66.2 °F 96% 30.04 in 5.0 mi SSE 4.6 mph - 0.01 in   Overcast
5:55 AM 67.3 °F - 66.2 °F 96% 30.05 in 5.0 mi SSE 5.8 mph - 0.02 in   Overcast
6:15 AM 67.5 °F - 66.4 °F 96% 30.05 in 5.0 mi SSE 4.6 mph - N/A   Overcast
6:35 AM 67.5 °F - 66.4 °F 96% 30.05 in 5.0 mi SSE 5.8 mph - N/A Rain Light Rain
6:55 AM 67.5 °F - 66.4 °F 96% 30.06 in 5.0 mi SSE 4.6 mph - N/A Rain Light Rain
7:15 AM 67.5 °F - 66.6 °F 97% 30.06 in 5.0 mi SSE 5.8 mph - N/A Rain Rain
7:35 AM 67.5 °F - 66.6 °F 97% 30.06 in 2.0 mi SSE 6.9 mph - 0.10 in Rain Heavy Rain
7:55 AM 67.5 °F - 66.6 °F 97% 30.06 in 2.5 mi SSE 5.8 mph - 0.28 in Rain Heavy Rain
8:15 AM 67.5 °F - 66.6 °F 97% 30.07 in 2.0 mi SSE 5.8 mph - 0.17 in Rain Heavy Rain
8:35 AM 65.5 °F - 63.5 °F 93% 30.08 in 5.0 mi SSW 4.6 mph - 0.24 in Rain Rain
8:55 AM 65.3 °F - 63.7 °F 94% 30.08 in 7.0 mi South 4.6 mph - 0.24 in   Light Drizzle
9:15 AM 65.7 °F - 64.2 °F 95% 30.09 in 10.0 mi SSW 5.8 mph - N/A   Overcast
9:35 AM 66.2 °F - 64.4 °F 94% 30.10 in 10.0 mi South 5.8 mph - N/A   Overcast
9:55 AM 66.2 °F - 64.4 °F 94% 30.11 in 10.0 mi SW 5.8 mph - N/A   Overcast
10:15 AM 66.0 °F - 63.7 °F 92% 30.12 in 10.0 mi SW 6.9 mph - N/A   Overcast
10:35 AM 66.2 °F - 63.9 °F 92% 30.12 in 10.0 mi West 6.9 mph - N/A   Overcast
10:55 AM 62.8 °F - 61.0 °F 94% 30.14 in 5.0 mi NW 13.8 mph 20.7 mph N/A   Light Drizzle
11:15 AM 60.8 °F - 59.0 °F 94% 30.15 in 10.0 mi NW 10.4 mph 18.4 mph N/A   Overcast
11:35 AM 57.6 °F - 56.5 °F 96% 30.16 in 3.0 mi WNW 11.5 mph - 0.02 in Rain Light Rain
11:55 AM 56.3 °F - 55.6 °F 97% 30.16 in 10.0 mi NW 13.8 mph 18.4 mph 0.03 in   Drizzle
12:15 PM 55.6 °F - 54.5 °F 96% 30.16 in 10.0 mi NW 12.7 mph 18.4 mph N/A   Light Drizzle
12:35 PM 55.4 °F - 54.1 °F 96% 30.16 in 10.0 mi NW 11.5 mph 17.3 mph N/A   Light Drizzle
12:55 PM 54.7 °F - 53.6 °F 96% 30.16 in 10.0 mi NNW 9.2 mph - N/A   Overcast
1:15 PM 54.0 °F - 53.1 °F 97% 30.16 in 10.0 mi NNW 10.4 mph 18.4 mph N/A Rain Light Rain
1:35 PM 53.6 °F - 52.5 °F 96% 30.16 in 10.0 mi NNW 10.4 mph 16.1 mph N/A   Overcast
1:55 PM 53.4 °F - 52.0 °F 95% 30.16 in 10.0 mi NW 12.7 mph 19.6 mph N/A   Overcast
2:15 PM 52.7 °F - 51.1 °F 94% 30.17 in 10.0 mi NNW 9.2 mph 18.4 mph N/A   Overcast
2:35 PM 53.1 °F - 51.1 °F 93% 30.17 in 10.0 mi NW 8.1 mph - N/A   Overcast
2:55 PM 52.9 °F - 50.7 °F 92% 30.18 in 10.0 mi NW 8.1 mph 16.1 mph N/A   Overcast
3:15 PM 52.7 °F - 50.0 °F 91% 30.19 in 10.0 mi NW 9.2 mph 17.3 mph N/A   Overcast
3:35 PM 52.3 °F - 50.0 °F 92% 30.19 in 10.0 mi NW 10.4 mph 17.3 mph N/A   Overcast
3:55 PM 52.7 °F - 49.6 °F 89% 30.19 in 10.0 mi NW 8.1 mph - N/A   Overcast
4:15 PM 53.1 °F - 49.6 °F 88% 30.20 in 10.0 mi NW 8.1 mph - N/A   Mostly Cloudy
4:35 PM 53.6 °F - 48.6 °F 83% 30.21 in 10.0 mi NNW 8.1 mph - N/A   Scattered Clouds
4:55 PM 52.2 °F - 47.8 °F 85% 30.21 in 10.0 mi NW 9.2 mph - N/A   Scattered Clouds
5:15 PM 51.6 °F - 46.9 °F 84% 30.22 in 10.0 mi NNW 5.8 mph - N/A   Clear
5:35 PM 51.1 °F - 46.8 °F 85% 30.22 in 10.0 mi NNW 4.6 mph - N/A   Clear
5:55 PM 50.5 °F - 46.6 °F 86% 30.22 in 10.0 mi NNW 5.8 mph - N/A   Clear
6:15 PM 50.0 °F - 46.0 °F 86% 30.24 in 10.0 mi NNW 4.6 mph - N/A   Clear
6:35 PM 49.5 °F - 45.5 °F 86% 30.25 in 10.0 mi NNW 5.8 mph - N/A   Clear
6:55 PM 49.1 °F - 45.0 °F 86% 30.26 in 10.0 mi NW 6.9 mph - N/A   Clear
7:15 PM 48.9 °F - 44.8 °F 86% 30.27 in 10.0 mi NNW 6.9 mph - N/A   Clear
7:35 PM 48.6 °F - 44.6 °F 86% 30.27 in 10.0 mi NNW 6.9 mph - N/A   Clear
7:55 PM 48.6 °F - 44.2 °F 85% 30.28 in 10.0 mi NNW 8.1 mph - N/A   Clear
8:15 PM 48.4 °F - 43.7 °F 84% 30.29 in 10.0 mi NNW 8.1 mph - N/A   Clear
8:35 PM 48.2 °F - 43.7 °F 84% 30.30 in 10.0 mi NNW 5.8 mph - N/A   Clear
8:55 PM 47.7 °F - 43.3 °F 85% 30.31 in 10.0 mi North 9.2 mph - N/A   Clear
9:15 PM 47.3 °F - 43.0 °F 85% 30.31 in 10.0 mi North 6.9 mph - N/A   Clear
9:35 PM 46.8 °F - 42.8 °F 86% 30.31 in 10.0 mi North 5.8 mph - N/A   Clear
9:55 PM 46.4 °F 43.5 °F 42.3 °F 85% 30.32 in 10.0 mi North 5.8 mph - N/A   Clear
10:15 PM 46.2 °F 42.7 °F 41.9 °F 85% 30.32 in 10.0 mi North 6.9 mph - N/A   Clear
10:35 PM 45.7 °F 42.0 °F 41.5 °F 85% 30.33 in 10.0 mi North 6.9 mph - N/A   Clear
10:55 PM 45.5 °F 42.5 °F 41.2 °F 85% 30.33 in 10.0 mi North 5.8 mph - N/A   Clear
11:15 PM 45.0 °F 40.1 °F 40.6 °F 85% 30.33 in 10.0 mi North 9.2 mph - N/A   Clear
11:35 PM 44.6 °F 40.7 °F 39.9 °F 84% 30.33 in 10.0 mi North 6.9 mph - N/A   Clear
11:55 PM 44.6 °F 39.7 °F 39.0 °F 81% 30.33 in 10.0 mi North 9.2 mph - N/A   Clear